Adams, North Dakota
Current Conditions -  °F | °C
As of 4:35 PM on Tuesday 21 Oct 2014 (Local Time) from KD55 Reporting Station
Clear Clear  
Wind Chill: 64°   Ceiling: Unl
Heat Index: 64°   Visibility: 10mi
Dew Point: 41°   Wind: 30mph
Humidity: 42%   Direction: 160°SSE
Pressure: 29.78"   Gusts: 37mph
Location:  48.42°N, 98.08°W
Report Text: KD55 212135Z AUTO 16026G32KT 10SM CLR 18/05 A2978 RMK AO2
Loading
Personal Weather Stations






























Interactive Weather Map
Tropical Storm Tracking
New forecast layout! Learn more

10-Day Weather Forecast

Advertisements
Track Severe Weather on mobile